Location: Unspecified
(0.0000°N, 0.0000°E)
Time: 00:01:15
(UTC+00:00)

STARLINK-32799 - Pass Details

Date: 08 March 2026
Orbit: 482 x 484 km, 43.0° (Epoch: 13 April)

Event Time Altitude Azimuth Distance (km) Brightness Sun altitude
Rises 18:25:09 0° 208° (SSW) 2,536 ? -3.6°
Reaches altitude 10° 18:27:32 10° 196° (SSW) 1,654 ? -4.2°
Maximum altitude 18:30:50 29° 135° (SE) 910 ? -5.0°
Drops below altitude 10° 18:34:07 10° 73° (ENE) 1,646 ? -5.8°
Enters shadow 18:34:56 - 68° (ENE) 1,938 ? -6.0°
